This demonstration page uses our WeatherBlox Daily Observations layout. Learn more.

Left ArrowRight Arrow

34.02893, -84.19858

Hourly Observations for July 15, 2021

Temp ( °F °C ) Dew Point ( °F °C ) Humidity (%) Winds ( mph kmh ) Pressure ( in mb ) Visibility ( mi km ) Precip ( " mm )
12:53 am 00:53 Clear 72 22.2 70 21.1 94 94 Calm 30.19 1022 10 16 0.00 0.00
1:53 am 01:53 Clear 71 21.7 70 21.1 96 96 Calm 30.19 1023 10 16 0.00 0.00
2:53 am 02:53 Mostly Cloudy 71 21.7 70 21.1 96 96 Calm 30.18 1022 10 16 0.00 0.00
3:53 am 03:53 Clear 70 21.1 69 20.6 97 97 Calm 30.18 1022 9 14 0.00 0.00
4:53 am 04:53 Clear 70 21.1 69 20.6 97 97 Calm 30.18 1022 8 13 0.00 0.00
5:53 am 05:53 Clear 69 20.6 69 20.6 100 100 Calm 30.18 1022 8 13 0.00 0.00
6:53 am 06:53 Mostly Sunny 70 21.1 69 20.6 97 97 Calm 30.19 1022 9 14 0.00 0.00
7:53 am 07:53 Sunny 74 23.3 71 21.7 91 91 Calm 30.19 1022 10 16 0.00 0.00
8:53 am 08:53 Sunny 78 25.6 71 21.7 79 79 Calm 30.19 1022 10 16 0.00 0.00
9:53 am 09:53 Sunny 80 26.7 71 21.7 74 74 W 6 9 30.20 1023 10 16 0.00 0.00
10:53 am 10:53 Partly Cloudy 83 28.3 72 22.2 70 70 VRB 3 6 30.19 1022 10 16 0.00 0.00
11:53 am 11:53 Mostly Cloudy 84 28.9 70 21.1 63 63 W 8 13 30.19 1022 10 16 0.00 0.00
12:53 pm 12:53 Partly Cloudy 86 30 70 21.1 59 59 VRB 3 6 30.17 1022 10 16 0.00 0.00
1:53 pm 13:53 Cloudy 85 29.4 68 20 57 57 W 7 11 30.16 1021 10 16 0.00 0.00
2:53 pm 14:53 Partly Cloudy 89 31.7 70 21.1 53 53 VRB 5 7 30.13 1020 10 16 0.00 0.00
3:25 pm 15:25 Mostly Cloudy with Nearby Thunderstorms 85 29.4 69 20.6 59 59 W 13 20 30.12 1020 10 16 0.00 0.00
3:40 pm 15:40 Cloudy 85 29.4 69 20.6 59 59 NNW 9 15 30.12 1020 10 16 0.00 0.00
3:53 pm 15:53 Mostly Cloudy 86 30 70 21.1 59 59 NW 7 11 30.12 1020 10 16 0.00 0.00
4:53 pm 16:53 Mostly Sunny 88 31.1 67 19.4 50 50 undefined N/A 30.09 1019 10 16 0.00 0.00
5:53 pm 17:53 Sunny 88 31.1 68 20 52 52 WNW 3 6 30.07 1018 10 16 0.00 0.00
6:53 pm 18:53 Mostly Cloudy 89 31.7 69 20.6 52 52 Calm 30.06 1018 10 16 0.00 0.00
7:53 pm 19:53 Sunny 86 30 69 20.6 57 57 Calm 30.06 1018 10 16 0.00 0.00
8:53 pm 20:53 Mostly Clear 80 26.7 70 21.1 71 71 S 3 6 30.07 1018 10 16 0.00 0.00
9:53 pm 21:53 Clear 79 26.1 71 21.7 77 77 SSE 3 6 30.08 1019 10 16 0.00 0.00
10:53 pm 22:53 Mostly Clear 77 25 72 22.2 85 85 SW 5 7 30.09 1019 10 16 0.00 0.00
11:53 pm 23:53 Clear 78 25.6 70 21.1 76 76 WNW 5 7 30.09 1019 10 16 0.00 0.00

Powered by AerisWeather